Stations météo

réclame
Mon MeteoGroup
UFS Deutsche Bucht, Allemagne (10007): Température de l'air & dewpoint: 15.01.2019 17:00:00 - 21.01.2019 17:00:00 (CET)UFS Deutsche Bucht, Allemagne (10007): Vitesse du vent & gusts: 15.01.2019 17:00:00 - 21.01.2019 17:00:00 (CET)UFS Deutsche Bucht, Allemagne (10007): Direction du vent: 15.01.2019 17:00:00 - 21.01.2019 17:00:00 (CET)UFS Deutsche Bucht, Allemagne (10007): reduced air pressure: 15.01.2019 17:00:00 - 21.01.2019 17:00:00 (CET)UFS Deutsche Bucht, Allemagne (10007): visibility: 15.01.2019 17:00:00 - 21.01.2019 17:00:00 (CET)UFS Deutsche Bucht, Allemagne (10007): Ensoleillement: 15.01.2019 17:00:00 - 21.01.2019 17:00:00 (CET)
Date & Time tt [°C] td [°C] ff [km/h] ff [knt] fx [km/h] fx [knt] dd ppp [hPa] vv [km] sd [min]
21.01.2019 17:00:00 5,6 2,2 22 12 - - NW 1017,6 10 18
21.01.2019 16:00:00 6,4 2,0 22 12 - - WNW 1017,9 10 54
21.01.2019 15:00:00 6,2 2,2 18 10 - - WNW 1018,2 10 60
21.01.2019 14:00:00 6,4 2,0 18 10 - - WNW 1018,7 10 42
21.01.2019 13:00:00 6,4 1,7 22 12 - - WNW 1019,1 0,6 60
21.01.2019 12:00:00 5,7 3,3 25 14 - - W 1019,6 0,6 60
21.01.2019 11:00:00 5,5 2,7 22 12 - - W 1019,9 10 60
21.01.2019 10:00:00 5,4 3,5 25 14 - - W 1020,0 10 6
21.01.2019 09:00:00 4,5 2,7 22 12 - - WNW 1020,2 9 0
21.01.2019 08:00:00 4,6 2,6 36 19 - - WSW 1019,9 9 0
21.01.2019 07:00:00 4,2 1,6 32 18 - - WSW 1020,1 9 0
21.01.2019 06:00:00 3,5 0,8 32 18 - - SW 1020,3 10 0
21.01.2019 05:00:00 3,2 0,7 29 16 - - SW 1021,0 10 0
21.01.2019 04:00:00 3,0 -0,2 29 16 - - SW 1021,4 10 0
21.01.2019 03:00:00 2,9 0,4 29 16 - - SW 1021,7 10 0
21.01.2019 02:00:00 3,0 -0,9 22 12 - - SSW 1021,8 10 0
21.01.2019 01:00:00 3,2 -1,5 18 10 - - SW 1022,4 10 0
21.01.2019 00:00:00 2,9 -2,4 18 10 - - SW 1022,4 10 0
20.01.2019 23:00:00 2,8 -2,4 18 10 - - SW 1022,2 10 0
20.01.2019 22:00:00 2,7 -2,4 14 8 - - SW 1022,1 10 0
20.01.2019 21:00:00 2,6 -2,1 14 8 - - SSW 1021,9 10 0
20.01.2019 20:00:00 2,7 -2,6 14 8 - - SSW 1021,6 10 0
20.01.2019 19:00:00 2,8 -2,5 14 8 - - S 1021,4 10 0
20.01.2019 18:00:00 2,7 -3,3 11 6 - - S 1021,2 10 0
20.01.2019 17:00:00 2,6 -2,8 14 8 - - S 1020,8 10 30
20.01.2019 16:00:00 2,9 -1,7 11 6 - - S 1020,5 10 60
20.01.2019 15:00:00 2,9 -1,8 11 6 - - S 1020,3 10 6
20.01.2019 14:00:00 2,8 -1,3 14 8 - - S 1024,0 10 6
20.01.2019 13:00:00 2,6 -1,8 14 8 - - S 1019,8 10 24
20.01.2019 12:00:00 2,6 -1,5 14 8 - - S 1019,8 10 0
20.01.2019 11:00:00 - - - - - - - - - -
20.01.2019 10:00:00 2,7 -1,6 11 6 - - S 1018,8 10 0
20.01.2019 09:00:00 2,5 -1,1 11 6 - - S 1018,4 10 0
20.01.2019 08:00:00 2,4 -0,7 11 6 - - S 1017,7 10 0
20.01.2019 07:00:00 2,4 -0,6 14 8 - - S 1017,4 10 0
20.01.2019 06:00:00 2,3 -0,7 14 8 - - SSE 1017,3 10 0
20.01.2019 05:00:00 2,5 -0,9 14 8 - - SSE 1017,4 10 0
20.01.2019 04:00:00 2,5 -0,8 18 10 - - S 1017,5 10 0
20.01.2019 03:00:00 2,5 -1,4 18 10 - - S 1017,3 10 0
20.01.2019 02:00:00 2,4 -1,6 22 12 - - S 1017,2 10 0
20.01.2019 01:00:00 2,6 -1,7 25 14 - - SSE 1017,2 10 0
20.01.2019 00:00:00 2,5 -2,4 25 14 - - S 1017,1 10 0
19.01.2019 23:00:00 2,7 -2,3 25 14 - - S 1017,0 10 0
19.01.2019 22:00:00 2,2 -3,6 25 14 - - S 1016,9 10 0
19.01.2019 21:00:00 2,4 -3,4 25 14 - - S 1017,0 10 0
19.01.2019 20:00:00 2,5 -1,7 22 12 - - S 1017,1 10 0
19.01.2019 19:00:00 2,4 -2,5 22 12 - - SSE 1017,0 10 0
19.01.2019 18:00:00 2,7 -1,8 22 12 - - SSE 1017,0 10 0
19.01.2019 17:00:00 2,5 -2,8 18 10 - - SSE 1017,1 10 42
19.01.2019 16:00:00 2,6 -2,7 14 8 - - S 1017,4 10 60
19.01.2019 15:00:00 2,7 -2,1 18 10 - - S 1017,5 10 60
19.01.2019 14:00:00 2,7 -1,9 18 10 - - S 1018,0 10 60
19.01.2019 13:00:00 2,7 -1,2 18 10 - - SSW 1018,4 10 60
19.01.2019 12:00:00 2,6 -1,1 22 12 - - S 1018,7 10 60
19.01.2019 11:00:00 2,5 -1,5 22 12 - - SSW 1018,8 6 60
19.01.2019 10:00:00 2,5 -2,2 25 14 - - SSW 1018,5 3,3 36
19.01.2019 09:00:00 2,6 -1,3 25 14 - - SSW 1018,1 10 0
19.01.2019 08:00:00 2,8 -0,5 25 14 - - SSW 1018,0 10 0
19.01.2019 07:00:00 2,9 -1,9 25 14 - - SSW 1017,9 10 0
19.01.2019 06:00:00 3,5 -0,4 22 12 - - SSW 1018,0 10 0
19.01.2019 05:00:00 3,5 0,3 22 12 - - SW 1018,4 10 0
19.01.2019 04:00:00 4,1 1,3 22 12 - - SW 1018,7 10 0
19.01.2019 03:00:00 4,2 2,2 25 14 - - SW 1018,8 10 0
19.01.2019 02:00:00 4,7 2,4 25 14 - - SW 1018,8 10 0
19.01.2019 01:00:00 5,1 2,6 18 10 - - WSW 1019,0 10 0
19.01.2019 00:00:00 5,3 1,0 18 10 - - WSW 1018,7 10 0
18.01.2019 23:00:00 5,4 2,9 14 8 - - SW 1018,6 10 0
18.01.2019 22:00:00 4,7 1,4 11 6 - - S 1018,5 10 0
18.01.2019 21:00:00 3,6 0,2 29 16 - - WSW 1018,4 7 0
18.01.2019 20:00:00 5,3 0,6 14 8 - - W 1018,2 10 0
18.01.2019 19:00:00 5,1 0,3 18 10 - - WSW 1017,9 10 0
18.01.2019 18:00:00 5,2 0,0 22 12 - - W 1017,9 10 0
18.01.2019 17:00:00 5,1 1,3 14 8 - - WSW 1018,0 10 6
18.01.2019 16:00:00 4,9 1,3 11 6 - - W 1017,9 10 48
18.01.2019 15:00:00 5,4 0,0 14 8 - - WNW 1017,7 10 48
18.01.2019 14:00:00 4,5 0,2 14 8 - - W 1017,6 10 60
18.01.2019 13:00:00 3,4 1,0 11 6 - - N 1017,4 10 54
18.01.2019 12:00:00 5,5 1,1 18 10 - - WNW 1017,0 10 60
18.01.2019 11:00:00 4,1 1,2 11 6 - - WNW 1016,7 10 24
18.01.2019 10:00:00 2,7 1,2 25 14 - - N 1016,3 10 0
18.01.2019 09:00:00 3,1 1,5 32 18 - - N 1015,4 9 0
18.01.2019 08:00:00 4,3 1,0 22 12 - - NNW 1014,7 10 0
18.01.2019 07:00:00 4,1 0,5 14 8 - - W 1014,3 10 0
18.01.2019 06:00:00 5,6 -2,2 18 10 - - WNW 1013,7 10 0
18.01.2019 05:00:00 5,4 -2,5 25 14 - - NW 1013,5 10 0
18.01.2019 04:00:00 5,2 -3,1 25 14 - - NNW 1013,0 10 0
18.01.2019 03:00:00 5,1 -3,4 25 14 47 25 NNW 1012,4 10 0
18.01.2019 02:00:00 4,9 -2,6 32 18 - - NNW 1011,7 10 0
18.01.2019 01:00:00 3,6 -1,4 22 12 - - N 1011,2 10 0
18.01.2019 00:00:00 2,9 0,3 25 14 61 33 N 1010,1 10 0
17.01.2019 23:00:00 3,4 -2,2 36 19 54 29 N 1008,6 10 0
17.01.2019 22:00:00 3,1 -0,7 40 21 - - N 1007,4 10 0
17.01.2019 21:00:00 1,7 0,1 40 21 47 25 NNE 1005,5 6 0
17.01.2019 20:00:00 2,7 -1,1 36 19 54 29 NNE 1003,4 10 0
17.01.2019 19:00:00 3,6 0,3 47 25 - - N 1001,6 10 0
17.01.2019 18:00:00 4,4 -0,7 47 25 76 41 NNW 999,7 10 0
17.01.2019 17:00:00 4,3 0,7 50 27 61 33 NW 998,3 9 0
17.01.2019 16:00:00 2,0 1,3 50 27 - - NNW 998,2 4,6 0
17.01.2019 15:00:00 4,3 1,5 36 19 65 35 NW 996,7 10 0
17.01.2019 14:00:00 3,6 1,7 43 23 65 35 NW 996,4 5 30
17.01.2019 13:00:00 4,4 2,0 47 25 - - WNW 995,9 9 30
17.01.2019 12:00:00 5,2 1,7 50 27 68 37 NW 995,3 10 18
17.01.2019 11:00:00 5,4 2,1 50 27 68 37 WNW 995,0 0,8 6
17.01.2019 10:00:00 5,7 3,0 47 25 - - W 994,2 10 0
17.01.2019 09:00:00 5,9 3,1 54 29 72 39 W 993,2 10 0
17.01.2019 08:00:00 6,2 3,2 54 29 68 37 WSW 992,9 10 0
17.01.2019 07:00:00 6,6 3,2 47 25 - - WSW 993,0 10 0
17.01.2019 06:00:00 5,8 2,8 50 27 65 35 WSW 993,2 4,9 0
17.01.2019 05:00:00 6,7 3,4 47 25 65 35 WSW 993,8 10 0
17.01.2019 04:00:00 6,5 3,7 40 21 - - WSW 994,2 10 0
17.01.2019 03:00:00 6,5 4,1 36 19 54 29 WSW 994,3 10 0
17.01.2019 02:00:00 6,0 3,5 43 23 54 29 WSW 994,5 10 0
17.01.2019 01:00:00 6,2 4,1 40 21 - - WSW 994,8 10 0
17.01.2019 00:00:00 5,9 3,8 36 19 50 27 WSW 994,9 10 0
16.01.2019 23:00:00 6,2 3,8 36 19 72 39 W 995,3 10 0
16.01.2019 22:00:00 6,3 5,2 61 33 - - SW 994,7 5 0
16.01.2019 21:00:00 6,1 5,0 61 33 76 41 SW 995,1 5 0
16.01.2019 20:00:00 6,1 5,3 58 31 72 39 SW 995,6 2,9 0
16.01.2019 19:00:00 6,1 5,5 58 31 - - SW 996,4 2,7 0
16.01.2019 18:00:00 6,1 5,6 58 31 72 39 SW 997,3 1,9 0
16.01.2019 17:00:00 6,4 5,9 58 31 72 39 SW 998,1 3,5 0
16.01.2019 16:00:00 6,5 6,0 58 31 - - SW 998,7 3,6 0
16.01.2019 15:00:00 6,7 6,1 54 29 68 37 WSW 999,4 3,5 0
16.01.2019 14:00:00 6,9 6,2 58 31 68 37 SW 1000,0 6 0
16.01.2019 13:00:00 6,9 6,4 50 27 - - SW 1000,7 4,0 0
16.01.2019 12:00:00 7,1 6,5 50 27 65 35 SW 1001,8 8 0
16.01.2019 11:00:00 7,3 6,5 50 27 65 35 SW 1002,6 9 0
16.01.2019 10:00:00 7,4 6,2 47 25 - - SW 1003,1 10 0
16.01.2019 09:00:00 7,4 6,3 43 23 54 29 SW 1003,4 10 0
16.01.2019 08:00:00 7,4 6,4 40 21 50 27 WSW 1003,6 9 0
16.01.2019 07:00:00 7,6 6,3 40 21 - - WSW 1003,9 10 0
16.01.2019 06:00:00 7,4 6,3 36 19 47 25 WSW 1004,4 9 0
16.01.2019 05:00:00 7,5 6,2 40 21 50 27 WSW 1005,1 9 0
16.01.2019 04:00:00 7,5 6,1 40 21 - - WSW 1005,7 10 0
16.01.2019 03:00:00 7,4 6,0 40 21 50 27 WSW 1006,5 10 0
16.01.2019 02:00:00 7,5 5,8 40 21 54 29 WSW 1006,8 10 0
16.01.2019 01:00:00 7,7 5,9 43 23 - - WSW 1007,1 10 0
16.01.2019 00:00:00 7,6 5,9 40 21 54 29 WSW 1007,6 10 0
15.01.2019 23:00:00 7,7 6,2 43 23 54 29 W 1007,7 10 0
15.01.2019 22:00:00 7,8 6,4 43 23 - - W 1007,8 9 0
15.01.2019 21:00:00 7,9 6,6 47 25 58 31 W 1007,9 9 0
15.01.2019 20:00:00 7,8 6,8 43 23 58 31 W 1007,7 7 0
15.01.2019 19:00:00 7,6 6,8 43 23 - - W 1007,5 7 0
15.01.2019 18:00:00 7,2 6,8 40 21 50 27 W 1007,7 2,5 0
15.01.2019 17:00:00 7,2 6,7 43 23 58 31 W 1007,8 2,9 0

tt = Température de l'air
td = dewpoint
ff = Vitesse du vent
fx = gusts
dd = Direction du vent
ppp = reduced air pressure
vv = visibility
sd = Ensoleillement

stations d'obs. à proximité